EHI
0 0 0 0 0 0 0 0 0 0 0 0 0 0 0 0 1 2 3 4 3 2 1 2 2 1 2 3 3 3 2 1 0 0 0 0 0 0 0 0 0 0 0 0
0 0 0 0 0 0 0 0 0 0 0 0 0 0 0 0 0 1 2 3 4 3 3 4 4 2 1 3 3 3 2 1 0 0 0 0 0 0 0 0 0 0 0 0
0 0 0 0 0 0 0 0 0 0 0 0 0 0 0 0 0 0 1 2 4 4 5 7 6 3 2 2 3 3 2 1 2 2 1 1 1 1 0 0 0 0 0 0
0 0 0 0 0 0 0 0 0 0 0 0 0 0 0 0 0 0 0 1 3 4 6 6 6 5 3 2 2 2 2 2 3 4 3 2 2 1 0 0 0 0 0 0
0 0 0 0 0 0 0 0 0 0 0 0 0 0 0 0 0 0 0 0 2 4 5 6 7 7 6 5 5 4 3 2 3 4 3 3 3 2 1 0 0 0 0 0
0 0 0 0 0 0 0 0 0 0 0 0 0 0 0 0 0 0 0 0 1 3 6 6 7 9 9 10 10 8 6 4 4 4 4 3 3 2 1 0 0 0 0 0
0 0 0 0 0 0 0 0 0 0 0 0 0 0 0 0 0 0 0 0 1 3 6 8 8 10 12 13 13 12 9 8 7 6 5 3 2 1 0 0 0 0 0 0
0 0 0 0 0 0 0 0 0 0 0 0 0 0 0 0 0 0 0 1 2 4 6 8 9 10 12 12 12 12 11 9 9 8 5 3 2 1 0 0 0 0 0 0
0 0 0 0 0 0 0 0 0 0 0 0 0 0 0 0 0 0 1 2 3 4 6 8 8 8 9 9 9 11 10 9 9 8 5 2 1 0 0 1 1 0 0 0
0 0 0 0 0 0 0 0 0 0 0 0 0 0 0 0 0 1 1 2 4 4 7 9 9 7 6 6 7 8 8 7 6 6 5 2 0 0 0 1 1 1 0 0
0 0 0 0 0 0 0 0 0 0 0 0 0 0 0 0 0 1 1 2 3 4 6 9 10 8 6 5 6 6 5 4 4 4 3 2 1 0 0 1 1 1 1 0
0 0 0 0 0 0 0 0 0 0 0 0 0 0 0 0 0 0 1 2 3 3 5 7 9 7 5 4 5 5 4 3 3 3 3 3 2 1 1 2 2 2 1 1
0 0 0 0 0 0 0 0 0 0 0 0 0 0 0 0 0 0 1 2 2 3 3 5 6 6 5 4 4 4 3 3 3 3 3 3 3 2 2 3 3 2 2 1
0 0 0 0 0 0 0 0 0 0 0 0 0 0 0 0 1 1 1 1 2 3 3 4 5 6 5 4 3 3 3 3 4 4 4 3 3 2 2 3 3 3 3 2
0 0 0 0 0 0 0 0 0 0 0 0 0 0 0 1 2 2 1 2 2 2 2 3 3 4 5 4 3 3 3 3 4 4 4 4 4 3 3 3 3 3 3 3
0 0 0 0 0 0 0 0 0 0 0 0 0 0 0 1 2 2 1 1 2 1 1 1 1 2 4 5 4 3 3 3 3 3 4 5 5 5 4 3 3 3 3 3
0 0 0 0 0 0 0 0 0 0 0 0 0 0 0 1 1 1 0 1 1 1 0 0 0 1 2 4 4 3 3 3 3 3 3 3 3 4 4 4 3 3 3 3
0 0 0 0 0 0 0 0 0 0 0 0 0 0 0 0 0 0 0 0 0 0 0 0 0 0 1 2 4 4 4 3 2 1 1 2 1 2 3 3 3 3 3 3
0 0 0 0 0 0 0 0 0 0 0 0 0 0 0 0 0 0 0 0 0 0 0 0 0 0 1 1 3 4 3 2 1 0 0 0 1 2 3 3 3 3 3 3
0 0 0 0 0 0 0 0 0 0 0 0 0 0 0 0 0 0 0 0 0 0 0 0 0 0 1 2 2 2 1 0 0 0 0 0 1 3 3 3 3 3 3 3
0 0 0 0 0 0 0 0 0 0 0 0 0 0 0 0 0 0 0 0 0 0 0 0 0 0 1 2 1 0 0 0 0 0 0 0 2 3 3 3 3 3 3 3
0 0 0 0 0 0 0 0 0 0 0 0 0 0 0 0 0 0 0 0 0 0 0 0 1 0 0 0 0 0 0 0 0 0 0 0 1 2 2 3 3 3 3 3
0 0 0 0 0 0 0 0 0 0 0 0 0 0 0 0 0 0 0 0 0 0 0 0 0 0 0 0 0 0 0 0 0 0 0 0 0 1 1 1 2 3 3 3
0 0 0 0 0 0 0 0 0 0 0 0 0 0 0 0 0 0 0 0 0 0 0 0 0 0 0 0 0 0 0 0 0 0 0 0 0 0 0 0 1 2 2 2
0 0 0 0 0 0 0 0 0 0 0 0 0 0 0 0 0 0 0 0 0 0 0 0 0 0 0 0 0 0 0 0 0 0 0 0 0 0 0 0 0 1 1 1
0 0 0 0 0 0 0 0 0 0 0 0 0 0 0 0 0 0 0 0 0 0 0 0 0 0 0 0 0 0 0 0 0 0 0 0 0 0 0 0 0 0 0 0
Wind_Speed
7 6 6 6 6 5 5 5 5 4 5 5 6 6 8 7 6 6 6 6 7 6 6 6 5 4 3 4 4 4 3 3 3 2 2 2 2 2 2 2 3 3 3 3
7 7 6 5 5 7 7 6 4 3 5 4 5 6 7 9 8 6 6 6 6 6 7 6 6 4 3 4 4 4 2 3 4 2 2 2 2 2 2 1 2 2 3 3
8 4 5 6 6 8 7 5 4 3 4 7 6 7 7 9 8 6 6 6 6 7 7 7 6 5 3 3 3 3 3 3 4 3 2 2 2 1 2 1 1 1 2 2
7 5 6 7 7 6 5 3 4 4 5 4 6 4 6 8 8 8 6 5 6 6 6 7 6 5 4 3 3 3 3 3 4 4 2 2 2 1 1 1 1 1 1 2
5 5 7 7 6 5 4 3 6 6 6 7 8 6 4 6 7 7 7 6 5 6 7 7 6 5 4 3 3 2 3 3 4 3 3 2 2 1 1 1 2 1 1 1
6 5 5 6 6 5 5 7 8 8 6 8 8 6 3 4 6 6 6 6 6 7 7 7 6 5 4 3 3 3 3 3 3 3 2 2 2 1 2 1 1 1 0 1
8 8 7 6 7 7 7 5 3 4 5 5 5 4 2 4 5 5 6 6 6 6 6 7 6 6 5 4 3 3 3 3 3 3 2 2 2 2 2 2 1 1 0 0
8 8 8 6 7 5 7 7 4 3 3 4 5 4 3 5 5 4 4 4 5 5 6 6 6 5 5 4 3 3 3 3 2 2 2 2 2 1 1 1 1 1 1 1
5 4 6 5 5 6 7 7 6 6 8 6 4 4 5 6 6 4 4 4 4 5 5 6 6 5 5 4 3 3 3 3 3 2 1 2 2 2 2 2 1 1 1 1
6 5 5 4 5 8 8 7 5 5 5 5 4 4 4 6 6 5 4 4 4 4 5 5 5 5 5 4 4 3 2 2 2 2 1 2 2 1 1 2 2 2 1 1
8 6 6 6 8 8 8 9 6 5 6 4 4 1 3 5 5 5 4 4 4 4 5 5 4 4 4 4 4 3 3 2 2 2 2 2 2 1 1 1 1 2 2 2
5 5 6 8 7 6 6 7 7 5 5 5 4 1 4 5 5 5 4 4 4 4 4 5 4 4 3 4 4 3 3 2 2 2 2 2 2 2 2 1 1 1 2 2
5 5 6 5 6 6 6 7 7 6 6 6 5 2 4 4 4 4 5 4 4 4 4 4 4 3 3 2 2 2 2 2 2 2 2 2 2 2 2 2 1 1 1 1
4 7 7 6 3 3 6 7 7 7 5 5 6 2 3 3 3 4 4 4 4 4 4 3 3 3 2 2 2 2 2 2 2 2 2 2 2 1 1 1 1 1 1 1
4 8 8 7 6 6 7 8 8 9 8 6 5 2 1 2 3 3 4 4 4 3 3 3 3 2 2 2 2 1 1 1 1 2 2 1 1 1 1 1 1 1 0 1
5 7 8 8 7 7 8 8 9 9 7 6 4 2 2 4 4 4 4 4 3 2 2 2 2 1 2 2 1 1 1 1 1 1 1 1 1 1 1 0 1 1 0 0
5 6 6 7 6 7 7 6 6 4 3 3 3 2 2 3 3 3 3 3 3 2 2 1 1 1 1 1 2 2 1 1 1 1 1 1 1 1 1 1 1 1 0 0
8 7 5 5 6 7 0 4 3 1 1 3 2 3 3 3 3 3 3 3 3 2 2 1 0 1 1 1 1 2 1 1 1 1 1 1 1 1 1 1 1 1 1 1
7 6 5 4 5 4 1 1 2 2 0 2 2 3 3 3 2 2 4 3 3 2 2 1 1 0 1 1 1 1 2 1 1 1 1 1 2 2 2 2 2 1 1 1
5 6 5 5 5 4 1 2 2 2 0 3 3 2 2 2 1 1 3 3 3 3 2 2 2 2 1 1 1 1 1 1 1 1 2 2 2 2 3 3 2 1 2 2
3 4 6 6 5 1 2 2 1 1 1 3 4 3 3 2 2 2 3 3 3 3 3 3 2 2 2 2 1 1 1 0 0 1 1 1 2 2 3 3 2 2 1 1
3 3 3 3 4 1 3 2 2 3 3 3 3 3 4 4 4 3 3 3 3 3 3 3 3 2 2 2 2 1 1 1 1 1 0 0 1 1 1 2 2 2 2 2
1 1 1 1 1 3 3 3 3 3 3 3 3 3 3 3 2 3 2 2 2 2 2 2 2 2 2 2 1 1 1 2 2 1 1 1 1 0 1 1 2 2 2 2
2 2 2 1 1 1 2 3 3 3 3 3 3 3 3 2 2 2 2 2 2 2 2 2 1 1 1 1 1 1 1 1 1 1 1 1 1 1 1 1 2 2 2 2
3 2 3 3 1 1 2 3 3 3 3 3 3 3 3 2 2 2 2 2 2 2 1 1 1 1 1 1 2 2 2 1 2 1 1 1 1 1 1 1 1 2 2 2
3 2 3 2 1 1 1 1 2 2 2 3 3 3 3 3 2 2 2 2 2 2 2 1 1 1 1 2 2 1 1 1 2 1 1 1 1 1 1 1 1 2 3 3
Wind_Direction
207 217 221 218 222 233 237 231 218 195 177 191 210 204 181 186 187 177 175 171 168 161 145 132 125 113 107 100 100 100 104 104 94 80 86 91 76 68 64 56 59 60 67 72
213 221 228 221 224 240 244 246 232 188 178 198 219 222 184 183 185 181 182 180 165 155 145 137 133 127 129 121 115 118 114 118 110 99 91 108 108 89 91 64 52 48 62 67
214 221 226 232 228 238 246 253 245 225 204 224 237 226 191 180 172 176 185 177 160 156 151 147 144 138 138 131 131 135 134 119 118 115 94 82 90 85 81 79 47 28 63 68
225 224 222 229 236 245 248 266 266 249 238 239 234 235 191 179 171 176 180 176 159 153 149 148 149 147 148 140 138 144 136 123 121 125 119 116 107 120 148 136 120 59 59 65
216 225 234 232 234 243 247 258 258 251 251 258 242 246 196 180 176 177 174 173 161 153 148 148 147 145 148 137 136 143 135 126 121 120 130 138 135 144 128 111 112 88 59 62
226 225 241 247 239 232 244 243 240 242 248 251 237 238 203 185 178 174 172 170 163 157 151 147 142 137 137 132 136 140 132 125 128 134 144 154 155 134 116 109 120 109 76 78
222 216 220 237 235 215 230 242 236 221 218 235 219 224 190 130 142 150 161 165 157 149 149 147 145 144 141 144 148 154 142 136 141 152 156 151 154 166 152 155 165 156 142 179
228 216 203 213 233 232 234 234 232 246 255 264 221 204 148 119 115 119 121 130 138 138 144 145 146 144 142 141 147 156 155 152 157 170 171 157 150 162 160 165 158 168 171 197
266 219 183 195 229 246 239 237 243 262 269 264 216 156 142 132 129 120 116 112 115 129 131 137 140 142 144 146 149 155 157 152 153 159 149 155 163 164 180 178 168 171 170 196
275 260 209 196 223 230 244 250 254 248 262 267 246 190 162 156 148 135 131 123 122 126 130 131 140 149 152 154 159 159 159 162 153 148 151 155 154 173 182 176 178 178 181 176
270 258 213 207 222 231 224 231 234 249 256 259 267 164 115 143 129 130 130 131 132 129 135 136 140 152 149 150 155 156 159 158 160 163 172 165 167 167 116 132 196 181 183 184
267 273 245 219 216 240 246 247 244 241 258 270 268 148 107 119 118 118 118 122 130 129 133 131 132 136 139 147 158 163 169 165 169 172 177 182 172 155 158 181 186 183 188 188
310 267 253 213 190 209 229 236 248 256 261 261 264 175 134 120 114 111 116 118 121 121 118 122 127 134 137 142 153 163 177 166 166 172 180 188 187 176 183 184 181 167 175 175
293 267 260 260 276 243 232 244 252 255 253 265 265 234 159 121 111 111 113 120 117 117 120 121 124 133 143 155 163 167 181 163 171 173 180 191 193 182 186 180 166 164 186 179
270 265 267 270 273 269 256 246 247 255 261 267 281 305 319 69 94 91 93 99 101 104 105 111 120 131 149 154 158 156 149 138 178 182 173 180 181 160 164 165 140 130 130 151
259 271 275 269 258 258 262 256 246 247 259 269 277 293 34 61 63 66 85 87 82 82 88 105 120 128 157 163 165 156 157 155 168 175 161 127 133 126 133 147 134 113 94 65
258 267 274 269 257 260 258 268 240 228 263 274 285 317 64 66 56 52 72 97 95 75 53 66 124 138 160 173 179 183 178 172 163 152 148 148 161 173 158 138 107 111 145 122
265 272 268 262 263 253 316 17 35 107 7 2 1 36 34 61 56 46 62 85 84 68 53 46 59 159 174 162 166 149 143 143 138 120 149 173 180 176 160 156 167 196 181 175
255 262 269 264 258 256 198 20 344 319 349 14 19 31 28 39 75 66 59 57 72 67 53 46 22 57 142 134 145 156 143 138 142 157 194 195 181 177 178 184 199 202 195 203
241 244 256 265 260 262 50 21 344 288 215 31 37 41 23 7 329 42 45 44 63 66 58 47 37 26 59 86 106 146 153 150 183 205 215 210 197 187 191 196 201 206 209 207
222 237 242 258 263 283 26 360 340 239 65 31 25 29 21 17 30 29 41 47 63 67 63 58 54 40 47 61 78 81 77 7 251 255 236 228 214 197 193 190 193 207 212 212
241 244 245 249 249 244 55 58 49 53 50 33 31 26 18 40 49 40 43 47 61 64 63 62 60 46 41 52 68 60 33 353 9 2 318 270 241 223 202 183 193 202 196 213
290 313 318 322 85 89 78 77 51 43 31 21 23 27 25 39 40 37 35 39 52 62 61 55 58 54 46 52 64 54 16 11 359 341 329 309 280 253 216 201 204 206 203 206
310 0 299 284 95 111 61 49 36 28 19 8 13 26 21 20 27 23 32 38 50 58 54 53 53 47 26 34 37 36 24 12 351 335 339 325 330 331 284 232 206 205 209 211
337 334 295 275 310 2 26 18 12 17 11 5 7 15 15 9 16 19 15 40 45 42 38 40 43 20 350 12 27 28 26 1 333 312 321 339 346 301 290 254 227 215 209 194
289 287 273 284 312 291 318 359 351 2 2 352 357 6 11 7 5 16 21 35 46 28 22 29 36 28 3 3 10 20 14 346 323 319 336 326 316 285 260 257 283 273 241 229